TimeAKST,TemperatureF,Dew PointF,Humidity,Sea Level PressureIn,VisibilityMPH,Wind Direction,Wind SpeedMPH,Gust SpeedMPH,PrecipitationIn,Events,Conditions,WindDirDegrees,DateUTC
12:53 AM,30.9,24.1,76,30.16,10.0,NE,4.6,-,N/A,,Overcast,50,2013-01-16 09:53:00
1:53 AM,30.0,23.0,75,30.14,10.0,Calm,Calm,-,N/A,,Overcast,0,2013-01-16 10:53:00
3:53 AM,32.0,24.1,73,30.08,10.0,North,3.5,-,N/A,,Overcast,10,2013-01-16 12:53:00
4:53 AM,33.1,27.0,78,30.04,10.0,Calm,Calm,-,N/A,,Overcast,0,2013-01-16 13:53:00
5:53 AM,32.0,27.0,82,30.01,10.0,NNE,3.5,-,N/A,,Overcast,30,2013-01-16 14:53:00
6:53 AM,32.0,28.0,85,29.99,10.0,Calm,Calm,-,0.00,Rain,Light Rain,0,2013-01-16 15:53:00
7:17 AM,33.8,30.2,87,29.98,4.0,NW,4.6,-,0.00,Snow,Light Snow,310,2013-01-16 16:17:00
7:53 AM,34.0,30.9,89,29.98,6.0,West,5.8,-,0.02,Snow,Light Snow,280,2013-01-16 16:53:00
8:32 AM,33.8,30.2,87,29.96,3.0,West,5.8,-,0.04,Snow,Light Snow,270,2013-01-16 17:32:00
8:40 AM,33.8,30.2,87,29.96,2.5,West,4.6,-,0.06,Snow,Light Snow,270,2013-01-16 17:40:00
8:50 AM,33.8,30.2,87,29.96,3.0,West,5.8,-,0.07,Snow,Light Snow,260,2013-01-16 17:50:00
8:53 AM,34.0,30.9,89,29.96,3.0,West,6.9,-,0.07,Snow,Light Snow,260,2013-01-16 17:53:00
8:56 AM,33.8,30.2,87,29.96,1.8,West,5.8,-,0.01,Snow,Light Snow,260,2013-01-16 17:56:00
9:07 AM,33.8,30.2,87,29.96,0.8,West,5.8,-,0.03,Snow,Light Snow,270,2013-01-16 18:07:00
9:39 AM,33.8,30.2,87,29.95,1.5,Calm,Calm,-,0.10,Snow,Light Snow,0,2013-01-16 18:39:00
9:45 AM,33.8,30.2,87,29.95,2.5,WSW,3.5,-,0.11,Snow,Light Snow,240,2013-01-16 18:45:00
9:53 AM,33.1,30.9,92,29.96,5.0,SW,3.5,-,0.11,Snow,Light Snow,230,2013-01-16 18:53:00
11:53 AM,32.0,28.0,85,29.93,10.0,WSW,5.8,-,N/A,,Overcast,250,2013-01-16 20:53:00
12:53 PM,30.9,27.0,85,29.91,10.0,WSW,5.8,-,N/A,,Overcast,240,2013-01-16 21:53:00
1:53 PM,30.9,26.1,82,29.88,10.0,WSW,5.8,-,N/A,,Mostly Cloudy,250,2013-01-16 22:53:00
2:53 PM,30.9,26.1,82,29.85,10.0,West,3.5,-,N/A,,Mostly Cloudy,270,2013-01-16 23:53:00
3:53 PM,30.0,24.1,79,29.82,10.0,Calm,Calm,-,N/A,,Mostly Cloudy,0,2013-01-17 00:53:00
4:53 PM,27.0,21.9,81,29.81,10.0,NNW,9.2,-,N/A,,Scattered Clouds,340,2013-01-17 01:53:00
5:53 PM,26.1,21.0,81,29.79,10.0,NNW,11.5,17.3,N/A,,Mostly Cloudy,340,2013-01-17 02:53:00
6:53 PM,26.1,19.9,78,29.77,10.0,North,8.1,-,N/A,,Clear,350,2013-01-17 03:53:00
7:53 PM,26.1,19.9,78,29.76,10.0,Calm,Calm,-,N/A,,Mostly Cloudy,0,2013-01-17 04:53:00
8:53 PM,26.1,19.9,78,29.74,10.0,West,5.8,-,N/A,,Overcast,280,2013-01-17 05:53:00
9:53 PM,26.1,19.9,78,29.73,10.0,NW,6.9,-,N/A,,Overcast,310,2013-01-17 06:53:00
10:53 PM,27.0,19.0,72,29.71,10.0,WNW,4.6,-,N/A,,Overcast,300,2013-01-17 07:53:00
11:53 PM,26.1,18.0,71,29.69,10.0,North,10.4,-,N/A,,Overcast,350,2013-01-17 08:53:00